sat.trackr.live / text

‹ back to catalog

STARLINK-32894

NORAD 62969 · 2025-029X

PAYLOAD ACTIVE UNKNOWN

§ Identity

Operator
Country
US
Launch date
2025-02-11
Launch site
AFWTR
Launch vehicle
Mass (kg)
RCS (m²)

Purposes: comms

External: N2YO · Heavens-Above · Gunter

§ Orbital elements

Epoch: 2026-09-21T20:35:31.956000Z

Period
93.85 min
Inclination
53.1606°
Eccentricity
0.0001643
Mean motion
15.34361517 rev/d
Perigee alt
461.7 km
Apogee alt
463.9 km
Semi-major
6,841.0 km
B*
6.2417e-4
RAAN
39.0166°
Arg perigee
76.2005°
Mean anomaly
283.9181°
Rev number
9,138

§ Raw data

STARLINK-328941 62969U 25029X   26264.85800875  .00020745  00000+0  62417-3 0  99912 62969  53.1606  39.0166 0001643  76.2005 283.9181 15.34361517 91383

JSON: /api/v1/satellites/62969 · /tle

For live sub-satellite position, see the globe view (requires WebGL).

§ Visibility from observer

Set your observer location to see the next 7 days of passes ≥ 10°. The values pass through the URL so the page stays shareable.

No JS? Fill the form by hand. The geolocation button needs JavaScript.